Regional Weather Roundup
Issued by NWS

Home | Current Version | Previous Version | Text Only | Print | Product List | Glossary On
Versions: 1 2 3 4 5 6 7 8 9 10 11 12 13 14 15 16 17 18 19 20 21 22 23 24 25 26 27 28 29 30 31 32 33 34 35 36 37 38 39 40 41 42 43 44 45 46 47 48 49 50
000
ASUS46 KLOX 272112
RWRCA

SOUTHERN CALIFORNIA WEATHER ROUNDUP
NATIONAL WEATHER SERVICE OXNARD CALIFORNIA
100 PM PST TUE JAN 27 2015

NOTE: "FAIR" INDICATES FEW OR NO CLOUDS BELOW 12,000 FEET WITH NO
SIGNIFICANT WEATHER AND/OR OBSTRUCTIONS TO VISIBILITY.

  -  STATIONS PRECEEDED BY AN ASTERISK (*) ARE NOT NWS OR FAA
     STATIONS AND ARE NOT SUBJECT TO NWS AND FAA QUALITY CONTROL.

CAZ041-042-087-272200-
LA AND ORANGE COUNTY COASTAL AREAS


CITY           SKY/WX    TMP DP  RH WIND       PRES   REMARKS
L.A. DOWNTOWN  SUNNY     72  47  40 NW3       30.14F
L.A. AIRPORT   MOSUNNY   67  57  70 W12       30.16S
LONG BEACH     SUNNY     71  50  47 NW5       30.15F

CITY           SKY/WX    TMP DP  RH WIND       PRES   REMARKS
AVALON           N/A     66 N/A N/A MISG        N/A
FULLERTON      SUNNY     73  46  38 VRB3      30.13F
*GETTY CENTER    N/A     68  50  52 S6G12       N/A
HAWTHORNE      SUNNY     71  53  52 MISG      30.15F
*LEO CARRILLO    N/A     67  58  72 SW7         N/A
*LOS ALAMITOS  PTSUNNY   71  52  51 W5        30.14F
*REDONDO BEACH   N/A     68  58  70 CALM      30.17S
SANTA ANA      MOSUNNY   74  46  36 VRB3      30.14F
STA MONICA APT MOSUNNY   69  53  56 SW8       30.16F
TORRANCE       MOSUNNY   70  59  68 NW12      30.16F
*UCLA            N/A     70  50  49 SW8       30.13F

$$

CAZ547-548-048-272200-
LA COUNTY VALLEYS AND INLAND EMPIRE


CITY           SKY/WX    TMP DP  RH WIND       PRES   REMARKS
BURBANK        SUNNY     67  46  47 SE7       30.15F
VAN NUYS       MOSUNNY   67  46  47 CALM      30.15F

CITY           SKY/WX    TMP DP  RH WIND       PRES   REMARKS
CORONA AIRPORT CLEAR     70  50  49 CALM      30.15F
CHINO          MOSUNNY   71  52  50 CALM      30.16F
*CLAREMONT       N/A     70  47  44 E2          N/A
MARCH AFB      SUNNY     66  49  53 VRB1      30.16F
*NORTHRIDGE      N/A     68  45  42 E2          N/A
ONTARIO        MOSUNNY   69  46  43 VRB3      30.15F
*PASADENA        N/A     72  50  46 CALM        N/A
POMONA         SUNNY     66  50  55 E6        30.18
RIVERSIDE      SUNNY     69  49  48 CALM      30.15F
SAN BERNARDINO MOSUNNY   66  46  48 CALM      30.15F
*SAN GABRIEL     N/A     72  42  33 CALM      30.11F
*SAN RAFAEL HI   N/A     69  45  41 S5          N/A
*SAUGUS          N/A     63  53  71 S3          N/A
*WHITEMAN AP   NOT AVBL
*WOODLAND HILL   N/A     70  48  46 SW3G10      N/A

$$

CAZ054-055-272200-
LA AND SAN BERNARDINO COUNTY MOUNTAINS


CITY           SKY/WX    TMP DP  RH WIND       PRES   REMARKS
*ACTON           N/A     55  47  73 N7          N/A
*BIG BEAR AIRP CLEAR     46  32  57 SW8       30.23F
*BIG PINES       N/A     44  35  69 CALM        N/A
MT WILSON NWS    N/A     50  45  81 SW8         N/A
SANDBERG       CLOUDY    50  43  77 S6        30.23S

$$

CAZ028-029-059-060-099-272200-
ANTELOPE VALLEY AND SURROUNDING AREAS


CITY           SKY/WX    TMP DP  RH WIND       PRES   REMARKS
LANCASTER      CLOUDY    55  47  74 CALM      30.21F
PALMDALE       CLOUDY    56  47  71 VRB3      30.21F

CITY           SKY/WX    TMP DP  RH WIND       PRES   REMARKS
29 PALMS       PTSUNNY   57  50  77 SW6       30.27F
BARSTOW/DAGGET MOSUNNY   61  49  64 E8        30.20F
BISHOP         MOSUNNY   57  39  51 S12G20    30.17F
CHINA LAKE     PTSUNNY   57  49  74 SE7       30.19F
EDWARDS AFB    PTSUNNY   56  48  74 VRB3      30.20F
MOJAVE         PTSUNNY   54  48  82 E6        30.22F
NEEDLES        SUNNY     65  50  58 VRB3      30.20
VICTORVILLE      N/A     55  48  76 NW3       30.20F

$$

CAZ039-040-272200-
VENTURA AND SANTA BARBARA COUNTY COAST


CITY           SKY/WX    TMP DP  RH WIND       PRES   REMARKS
CAMARILLO      SUNNY     70  47  43 CALM      30.16F
NWS OXNARD       N/A     70  50  49 CALM      30.16F
OXNARD AIRPORT SUNNY     68  52  56 W10       30.17F
*POINT MUGU    PTSUNNY   70  56  61 W9        30.17F
SBA APT/GOLETA MOSUNNY   65  51  60 SW7       30.18F
*SANTA BARBARA   N/A     70  50  50 CALM      30.25F
*VENTURA         N/A     73  51  46 E7        30.20S

$$

CAZ044-045-272200-
VENTURA COUNTY VALLEYS


CITY           SKY/WX    TMP DP  RH WIND       PRES   REMARKS
*SIMI VALLEY     N/A     67  51  57 CALM      30.13F
*OJAI            N/A     69  51  54 CALM      30.12F

$$

CAZ053-272200-
VENTURA COUNTY MOUNTAINS


CITY           SKY/WX    TMP DP  RH WIND       PRES   REMARKS
*LOCKWOOD VLY    N/A     46  39  76 MISG        N/A
*ROSE VALLEY     N/A     54  50  87 MISG        N/A

$$

CAZ034-035-036-272200-
CENTRAL COAST AND SANTA YNEZ VALLEY


CITY           SKY/WX    TMP DP  RH WIND       PRES   REMARKS
SAN LUIS OBISP MOSUNNY   68  49  50 CALM      30.18F
SANTA MARIA    MOSUNNY   70  49  47 VRB5      30.18F

CITY           SKY/WX    TMP DP  RH WIND       PRES   REMARKS
*CAL POLY SLO    N/A     66  52  59 NE8         N/A
*LOMPOC        MOSUNNY   66  54  63 W9        30.19F
*PISMO BEACH     N/A     64  56  74 W2        30.18F
*SANTA YNEZ    FAIR      64  50  59 SW5       30.17F

$$

CAZ037-038-051-272200-
SAN LUIS OBISPO COUNTY INTERIOR AND CUYAMA VALLEY


CITY           SKY/WX    TMP DP  RH WIND       PRES   REMARKS
*CUYAMA          N/A     60  47  64 CALM      30.15F
PASO ROBLES    SUNNY     63  51  65 E5        30.20F

$$

CAZ032-033-061-272200-
SOUTHERN DESERTS


CITY           SKY/WX    TMP DP  RH WIND       PRES   REMARKS
BLYTHE         SUNNY     66  55  67 W6        30.18F
IMPERIAL       CLOUDY    65  54  67 W5        30.18F
PALM SPRINGS   MOSUNNY   68  51  54 E5        30.19F
THERMAL        CLOUDY    69  52  54 N6        30.16F

$$

ELSEWHERE ACROSS THE WESTERN UNITED STATES AND MEXICO


CITY           SKY/WX    TMP DP  RH WIND       PRES   REMARKS
DENVER, CO     PTSUNNY   70  14  11 SW5       30.05F
GRAND CANYON,  LGT RAIN  46  40  79 SW15      30.30F
HONOLULU, HI   MOSUNNY   81  63  54 E14G21    29.98F
KAHULUI, MAUI  MOSUNNY   75  64  69 E20G28    29.98F
LAKE TAHOE, CA LGT RAIN  39  33  79 CALM      30.24S
LAS VEGAS, NV  PTSUNNY   61  48  62 CALM      30.18F
MAMMOTH LAKES, CLOUDY    41  36  81 SE7       30.21F
MEXICO CITY, M SUNNY     73  34  23 NE9       30.31F
PHOENIX, AZ    MOSUNNY   71  47  42 E6        30.16F
PORTLAND, OR   CLOUDY    47  44  90 E6        30.15S
RENO, NV       CLOUDY    50  33  52 W20       30.18S
SALT LAKE CITY PTSUNNY   56  34  43 S22       30.14F
SAN DIEGO, CA  PTSUNNY   71  48  43 W9        30.15F
SAN FRANCISCO, CLOUDY    66  47  50 SW9       30.19S
SAN JOSE, CA   CLOUDY    66  40  38 SE9       30.18S
SEATTLE, WA    DRZL/FOG  50  48  93 SW8       30.10R VSB 1/2
TIJUANA, MEX   MOSUNNY   72  45  37 W12       30.15F

$$

STATION/POSITION TIME  TEMP    WIND        PRES    VSBY  WAVE
                       AIR SEA DIR/SP/G                  HT/PER
                 (UTC) (F)     (DEG/KT/KT) (MB)    (MI)  (FT/S)
POINT ARGUELLO B NOT AVBL
WEST SANTA BARBA 2100   61 61   80/  2/  4 1021.9F         6/14
POINT CONCEPTION NOT AVBL
EAST SANTA BARBA NOT AVBL
SANTA MONICA BAY 2100   62 63  280/  4/  4 1022.3F         4/15


USA.gov is the U.S. government's official web portal to all federal, state and local government web resources and services.